Regional Weather Roundup
Issued by NWS State College, PA

Home | Current Version | Previous Version | Graphics & Text | Print | Product List | Glossary Off
Versions: 1 2 3 4 5 6 7 8 9 10 11 12 13 14 15 16 17 18 19 20 21 22 23 24 25 26 27 28 29 30 31 32 33 34 35 36 37 38 39 40 41 42 43 44 45 46 47 48 49 50

000
ASUS41 KCTP 041503
RWRCTP

REGIONAL WEATHER ROUNDUP
NATIONAL WEATHER SERVICE STATE COLLEGE PA
1100 AM EDT MON MAY 04 2015

Note: "fair" indicates few or no clouds below 12,000 feet with no
significant weather and/or obstructions to visibility.

* = STATION THAT DOES NOT REPORT PRECIPITATION /E.G. RAIN...SNOW...ETC/
    THUNDER OR FOG.

PAZ002>004-007>009-013>016-020>023-029>032-041600-
WESTERN PENNSYLVANIA

CITY           SKY/WX    TMP DP  RH WIND       PRES   REMARKS
ERIE           MOSUNNY   76  45  33 SW16G26   30.10S
MEADVILLE      SUNNY     74  44  34 SW13G18   30.15S
FRANKLIN*      SUNNY     73  43  33 S16G25    30.18S
NEW CASTLE     FAIR      77  47  34 S8G16     30.17S
BEAVER COUNTY  SUNNY     73  61  64 SW10G17   30.18S
BUTLER*        SUNNY     73  43  33 SW14      30.20S
PITTSBURGH INT MOSUNNY   75  40  28 SW9G22    30.18S
PITTSBURGH     SUNNY     73  39  29 S13       30.19S
INDIANA*       SUNNY     73  45  35 W8        30.24S
LATROBE        SUNNY     73  48  40 SW14      30.23R
WASHINGTON CO* SUNNY     75  46  35 SW8       30.22S
$$

PAZ004>006-010>012-017>019-024>028-033>037-041-042-045-046-049>053-041600-
CENTRAL PENNSYLVANIA

CITY           SKY/WX    TMP DP  RH WIND       PRES   REMARKS
BRADFORD       SUNNY     73  38  27 VRB7G21   30.18F
DUBOIS         SUNNY     75  37  25 SW17G23   30.19S
CLEARFIELD       N/A    N/A N/A N/A MISG      30.21S
JOHNSTOWN      SUNNY     71  40  32 SW12G17   30.23S
ALTOONA        SUNNY     75  39  27 SW12      30.22S
STATE COLLEGE  SUNNY     75  43  31 SW10      30.20F
WILLIAMSPORT   SUNNY     70  47  43 SE6       30.18F
SELINSGROVE    SUNNY     72  53  51 S5        30.20F
FT INDIANTOWN  NOT AVBL
CAPITAL CITY   SUNNY     76  49  38 N5        30.21S
HARRISBURG     MOSUNNY   76  49  38 SE6       30.20F
YORK           SUNNY     77  47  34 SW9       30.21F
$$

PAZ038>040-043-044-047-048-054-055-060>062-067>071-041600-
EASTERN PENNSYLVANIA

CITY           SKY/WX    TMP DP  RH WIND       PRES   REMARKS
SCRANTON       SUNNY     78  41  26 SW8       30.19F
MOUNT POCONO   PTSUNNY   73  35  25 W9G21     30.24S
ALLENTOWN      SUNNY     78  47  33 S8        30.21S
QUAKERTOWN*    SUNNY     77  46  33 SW7       30.23S
READING        SUNNY     78  47  33 VRB3      30.20F
LANCASTER      SUNNY     76  49  38 W6        30.22S
COATESVILLE    SUNNY     77  48  36 SW6       30.24S
POTTSTOWN      SUNNY     75  49  39 VRB3      30.23S
BLUE BELL      SUNNY     79  50  36 SW5       30.22S
DOYLESTOWN     SUNNY     77  43  29 SW8       30.22R
WILLOW GROVE   NOT AVBL
NORTH PHILA    SUNNY     77  47  34 SW6       30.24S
PHILADELPHIA   MOSUNNY   76  47  35 SW7       30.24R
$$



USA.gov is the U.S. government's official web portal to all federal, state and local government web resources and services.